[[{"header":{"parameterUnit":"m.s-1","parameterCategory":1,"la1":30.2991,"la2":30.254,"lo1":-89.0895,"lo2":-89.0444,"dy":0.0017,"dx":0.0017,"nx":28,"ny":28,"refTime":"2025-06-06T09:00:00:Z","depth":0,"parameterNumber":2,"parameterNumberName":"U-component_of_WINDS"},"data":[0,0,0,0,0,0,0,0,0,0,0,0,0,0,0,0,0,0,0,0,0,0,0,0,0,0,0,0,0,0,0,0,0,0,0,0,0,0,0,0,0,0,0,0,0,0,0,0,0,0,0,0,0,0,0,0,0,0,2.3495,2.3496,0,2.3584,2.3585,2.3586,2.355,2.3548,2.3545,2.3543,2.3635,2.364,2.3644,0,0,0,0,0,0,0,0,0,0,0,0,0,2.3293,2.3297,2.3495,2.3496,2.3497,2.3583,2.3585,2.3586,2.355,2.3547,2.3545,2.3543,2.3634,2.3639,2.3644,0,0,0,0,0,0,0,0,0,0,0,0,0,2.3381,2.3298,2.3494,2.3489,2.349,2.3583,2.3585,2.3586,2.3551,2.3547,2.3544,2.3541,2.3632,2.3639,2.3645,2.3749,0,0,2.3665,2.3668,0,0,0,0,0,0,0,0,2.3376,2.3388,2.3489,2.349,2.3491,2.3552,2.3547,2.3641,2.3551,2.3528,2.3543,2.354,2.361,2.3618,2.3642,2.3753,2.3757,2.3666,2.367,2.3673,2.3674,0,0,0,0,0,0,0,2.337,2.3384,2.353,2.349,2.3491,2.3482,2.3491,2.3565,2.3585,2.3529,2.3527,2.3538,2.361,2.3636,2.3644,2.3758,2.3666,2.3671,2.3676,2.3678,2.3957,2.396,0,0,0,0,0,0,2.3364,2.338,2.3527,2.3532,2.3424,2.3488,2.3499,2.3536,2.3585,2.3589,2.3541,2.3536,2.3626,2.3636,2.3647,2.3771,2.3673,2.3679,2.3683,2.3954,2.3958,2.3962,0,0,0,0,0,0,2.3359,2.3377,2.3523,2.3455,2.3473,2.3495,2.3537,2.3539,2.3565,2.3593,2.3596,2.3563,2.3624,2.3638,2.3723,2.3774,2.3682,2.3688,2.395,2.3955,2.396,2.402,0,0,0,0,0,0,2.3354,2.3376,2.3416,2.3457,2.3477,2.3599,2.354,2.3543,2.3576,2.3571,2.3615,2.3619,2.3623,2.3714,2.373,2.3781,2.3693,2.3945,2.3952,2.3958,2.4014,2.4027,2.4038,0,0,0,0,0,2.3347,2.343,2.3418,2.3436,2.3528,2.3602,2.3613,2.3615,2.358,2.3621,2.3638,2.3618,2.3765,2.3723,2.3741,2.3795,2.3942,2.395,2.3958,2.4009,2.4024,2.4038,0,0,0,0,0,0,2.3395,2.3435,2.3423,2.3521,2.3558,2.3595,2.3646,2.3632,2.368,2.3673,2.3673,2.3684,2.3772,2.3792,2.3743,2.3897,2.3848,2.386,2.3881,2.3896,2.3908,2.3902,2.3698,0,0,0,0,0,2.3417,2.3474,2.3506,2.359,2.3609,2.3625,2.3657,2.3655,2.3693,2.3709,2.3733,2.3771,2.3826,2.3862,2.3914,2.4016,2.4025,2.4062,2.4074,2.4084,2.4094,2.4149,2.4166,2.3987,2.3987,2.3987,0,0,2.3464,2.3493,2.3529,2.36,2.3629,2.3688,2.3638,2.3703,2.3746,2.3719,2.3801,2.382,2.3862,2.3956,2.3999,2.3975,2.4145,2.4094,2.4101,2.4107,2.4159,2.4175,2.419,2.3992,2.3992,2.3991,0,0,2.3579,2.3606,2.3679,2.3708,2.3751,2.3761,2.3778,2.3817,2.3828,2.3911,2.3891,2.3942,2.4037,2.4067,2.4095,2.4219,2.4202,2.4236,2.43,2.4353,2.4367,2.4379,2.4424,2.4439,2.4246,2.4246,2.4247,0,2.3631,2.3719,2.3718,2.3784,2.3816,2.3793,2.3866,2.3894,2.3952,2.3975,2.3947,2.4064,2.4091,2.4192,2.4222,2.4245,2.4265,2.4232,2.4365,2.4377,2.4389,2.4431,2.4448,2.425,2.425,2.4249,2.4249,0,2.3781,2.3842,2.3896,2.3952,2.399,2.4059,2.4068,2.4106,2.41,2.4112,2.4195,2.4226,2.4283,2.4307,2.4302,2.4407,2.4391,2.4364,2.4316,2.441,2.445,2.4466,2.4256,2.4254,2.4253,2.4252,0,0,2.3931,2.3985,2.4004,2.4029,2.4074,2.4121,2.4188,2.4244,2.4276,2.4317,2.4373,2.4452,2.4428,2.4459,2.4457,2.4504,2.46,2.4472,2.4473,2.4495,2.4716,2.4736,2.4755,2.4588,2.4591,2.4593,2.4713,0,2.405,2.4169,2.4169,2.4278,2.4334,2.4312,2.437,2.4404,2.4416,2.4465,2.4479,2.4535,2.4498,2.4517,2.4562,2.4579,2.4644,2.457,2.4641,2.4643,2.4632,2.4776,2.4798,2.4909,2.4728,2.4731,2.4733,0,2.4205,2.4249,2.4364,2.44,2.4423,2.4476,2.4526,2.4573,2.461,2.4616,2.465,2.4641,2.4709,2.4657,2.475,2.4699,2.4728,2.474,2.4744,2.4752,2.4694,2.4788,2.4945,2.4962,2.4757,2.4755,2.4753,0,2.4303,2.4391,2.4471,2.4493,2.4537,2.4574,2.4594,2.4628,2.4661,2.4704,2.4725,2.4776,2.4804,2.4844,2.4848,2.481,2.4942,2.489,2.4948,2.4948,2.4978,2.4977,2.5143,2.4995,2.4995,2.4995,2.4994,0,2.4436,2.4507,2.4516,2.4565,2.4644,2.4643,2.472,2.4737,2.4767,2.4818,2.4802,2.485,2.4852,2.4902,2.4905,2.4982,2.4994,2.5001,2.5001,2.5003,2.5002,2.5023,2.5015,2.4999,2.4998,2.4997,2.4997,0,2.456,2.4568,2.4654,2.4688,2.4697,2.4754,2.4782,2.4829,2.4839,2.4904,2.492,2.4935,2.4993,2.5,2.5067,2.5069,2.5162,2.5153,2.5149,2.5148,2.5206,2.5201,2.5392,2.5417,2.5252,2.5254,2.5255,0,2.4644,2.4699,2.4737,2.4771,2.4792,2.4846,2.4879,2.4879,2.4914,2.496,2.5001,2.5056,2.5101,2.5193,2.5211,2.5262,2.5255,2.5318,2.5263,2.5262,2.5256,2.5253,2.5259,2.5329,2.5331,2.5333,2.5334,0,2.4794,2.4795,2.4844,2.4894,2.4934,2.4973,2.501,2.5038,2.5042,2.5082,2.514,2.5175,2.5243,2.5298,2.5348,2.5367,2.5352,2.5351,2.5367,2.537,2.5366,2.5369,2.5179,2.5347,2.5346,2.5345,2.5344,2.5343,2.4902,2.4948,2.4983,2.5037,2.5064,2.5099,2.5144,2.5159,2.5207,2.5263,2.5259,2.5323,2.5357,2.5422,2.5445,2.5495,2.5474,2.5498,2.5504,2.551,2.5516,2.5357,2.5504,2.5503,2.5503,2.5503,2.5503,0,2.5051,2.5071,2.5121,2.5173,2.5215,2.5195,2.5234,2.5271,2.5328,2.5361,2.5404,2.5471,2.5523,2.5544,2.5595,2.5631,2.5625,2.5645,2.5643,2.5648,2.5531,2.5512,2.5649,2.5649,2.5649,2.5649,2.5649,2.5649,2.5134,2.5212,2.5217,2.5307,2.5327,2.539,2.5414,2.5445,2.5471,2.5546,2.559,2.5602,2.563,2.5683,2.573,2.5735,2.5755,2.5778,2.5779,2.5671,2.5656,2.5642,2.5624,2.5782,2.5782,2.5892,2.5893,2.5894]},{"header":{"parameterUnit":"m.s-1","parameterCategory":1,"la1":30.2991,"la2":30.254,"lo1":-89.0895,"lo2":-89.0444,"dy":0.0017,"dx":0.0017,"nx":28,"ny":28,"refTime":"2025-06-06T09:00:00:Z","depth":0,"parameterNumber":3,"parameterNumberName":"V-component_of_WINDS"},"data":[0,0,0,0,0,0,0,0,0,0,0,0,0,0,0,0,0,0,0,0,0,0,0,0,0,0,0,0,0,0,0,0,0,0,0,0,0,0,0,0,0,0,0,0,0,0,0,0,0,0,0,0,0,0,0,0,0,0,5.9891,5.9893,0,5.9999,6.0001,6.0002,5.9986,5.9985,5.9983,5.9981,6.0083,6.0087,6.0092,0,0,0,0,0,0,0,0,0,0,0,0,0,5.9664,5.9668,5.9891,5.9893,5.9894,5.9999,6.0001,6.0002,5.9987,5.9985,5.9982,5.998,6.0082,6.0087,6.0092,0,0,0,0,0,0,0,0,0,0,0,0,0,5.9766,5.9669,5.9891,5.9899,5.9901,5.9999,6.0001,6.0002,5.9987,5.9985,5.9982,5.9979,6.008,6.0086,6.0093,6.0187,0,0,6.0113,6.0116,0,0,0,0,0,0,0,0,5.976,5.9774,5.9897,5.9899,5.9901,5.9977,5.9958,6.0064,5.9988,5.9954,5.9981,5.9978,6.0049,6.0058,6.0084,6.0191,6.0196,6.0113,6.0117,6.012,6.0122,0,0,0,0,0,0,0,5.9753,5.977,5.9934,5.9898,5.9901,5.9895,5.9906,5.9978,6.0015,5.9957,5.9956,5.997,6.005,6.0078,6.0086,6.0197,6.0113,6.0119,6.0123,6.0126,6.0386,6.0389,0,0,0,0,0,0,5.9745,5.9764,5.993,5.9937,5.9823,5.9901,5.9914,5.9955,6.0014,6.0021,5.9972,5.9969,6.0068,6.0079,6.009,6.0204,6.012,6.0126,6.013,6.0384,6.0387,6.039,0,0,0,0,0,0,5.974,5.976,5.9926,5.985,5.9871,5.9908,5.9954,5.9959,5.9987,6.0026,6.0031,5.9994,6.0066,6.0081,6.0163,6.0207,6.0129,6.0135,6.038,6.0385,6.0389,6.0432,0,0,0,0,0,0,5.9734,5.9759,5.9796,5.9851,5.9875,6.0,5.9957,5.9963,5.9999,5.9996,6.0048,6.0054,6.0065,6.0154,6.017,6.0215,6.014,6.0376,6.0382,6.0387,6.0427,6.0437,6.0446,0,0,0,0,0,5.9726,5.9802,5.9798,5.9819,5.9924,6.0003,6.0016,6.003,6.0003,6.004,6.0065,6.0052,6.02,6.0162,6.018,6.0228,6.0373,6.038,6.0387,6.0422,6.0435,6.0446,0,0,0,0,0,0,5.9748,5.981,5.9806,5.9903,5.9948,6.0,6.0047,6.0043,6.0094,6.0089,6.0101,6.0113,6.0197,6.022,6.0177,6.0321,6.0282,6.0293,6.0303,6.0316,6.0325,6.0318,6.0146,0,0,0,0,0,5.9765,5.9827,5.9876,5.9957,5.998,6.001,6.0045,6.0052,6.0098,6.0116,6.0147,6.019,6.0246,6.0282,6.0335,6.043,6.0441,6.0472,6.0481,6.0489,6.0498,6.0549,6.0564,6.0413,6.0412,6.0412,0,0,5.9799,5.984,5.9878,5.9962,5.9998,6.0059,6.0026,6.0092,6.0137,6.0125,6.0206,6.023,6.0278,6.0368,6.0408,6.039,6.0542,6.0498,6.0504,6.0508,6.0558,6.0572,6.0585,6.0417,6.0416,6.0416,0,0,5.9892,5.9931,6.0003,6.004,6.0096,6.0115,6.0133,6.0186,6.0202,6.0285,6.0277,6.0329,6.0425,6.046,6.049,6.0599,6.0589,6.0615,6.0666,6.0716,6.0728,6.0739,6.0777,6.0791,6.0624,6.0624,6.0624,0,5.9927,6.0022,6.0039,6.0107,6.0144,6.0139,6.0211,6.0245,6.0314,6.0338,6.0317,6.0439,6.0471,6.0568,6.0595,6.062,6.0638,6.0609,6.0726,6.0737,6.0747,6.0783,6.0797,6.0627,6.0627,6.0626,6.0626,0,6.0062,6.0127,6.0178,6.0249,6.0291,6.036,6.0386,6.0426,6.0429,6.0451,6.0533,6.0572,6.0634,6.0657,6.066,6.0755,6.0742,6.0723,6.0684,6.0764,6.0798,6.0812,6.0631,6.063,6.0629,6.0629,0,0,6.0171,6.0252,6.027,6.0303,6.0364,6.0414,6.0482,6.0546,6.058,6.0627,6.0684,6.0766,6.075,6.0784,6.0791,6.0835,6.0917,6.0811,6.0812,6.0829,6.1024,6.1037,6.1053,6.0912,6.0914,6.0917,6.102,0,6.027,6.0395,6.0413,6.0521,6.0582,6.0579,6.0638,6.0681,6.0702,6.0754,6.0777,6.0835,6.0809,6.083,6.0874,6.0898,6.0957,6.0891,6.0962,6.0964,6.095,6.1071,6.1086,6.1181,6.1033,6.1035,6.1037,0,6.0403,6.0458,6.0574,6.0629,6.0654,6.0708,6.0767,6.0818,6.0866,6.0878,6.0918,6.0919,6.0988,6.0947,6.104,6.0995,6.1025,6.1041,6.1045,6.1052,6.1005,6.108,6.1212,6.1226,6.1058,6.1057,6.1055,0,6.0471,6.0574,6.0657,6.0684,6.075,6.0787,6.0816,6.0862,6.0899,6.095,6.0973,6.1031,6.1062,6.1105,6.1121,6.1089,6.1213,6.1173,6.1223,6.1223,6.1249,6.1247,6.1386,6.1269,6.1269,6.1269,6.1268,0,6.058,6.0651,6.0689,6.0739,6.0818,6.0837,6.0913,6.0939,6.098,6.1034,6.1034,6.1084,6.1102,6.1155,6.1167,6.1242,6.1256,6.1266,6.1269,6.1266,6.1265,6.1286,6.1279,6.1272,6.1271,6.1271,6.127,0,6.0669,6.0697,6.0788,6.0843,6.0859,6.0914,6.096,6.1008,6.103,6.1098,6.1115,6.1148,6.121,6.1231,6.1304,6.1313,6.14,6.1397,6.1385,6.1385,6.1434,6.1429,6.1591,6.1613,6.1482,6.1483,6.1484,0,6.0736,6.0791,6.0854,6.0892,6.0923,6.0983,6.1022,6.1042,6.1082,6.1141,6.1182,6.1244,6.1295,6.1393,6.1422,6.1478,6.1476,6.1529,6.1484,6.148,6.1476,6.1473,6.1478,6.1537,6.1538,6.1539,6.154,0,6.0853,6.0865,6.0923,6.0986,6.1033,6.1083,6.1131,6.1161,6.1187,6.1232,6.1297,6.1336,6.1414,6.1474,6.1532,6.1558,6.1553,6.1554,6.1569,6.1566,6.1557,6.1563,6.1407,6.155,6.1549,6.1548,6.1548,6.1547,6.0933,6.0982,6.1035,6.1099,6.1138,6.1183,6.1231,6.126,6.1316,6.1382,6.139,6.1459,6.1505,6.1583,6.1612,6.1665,6.165,6.1671,6.1676,6.1681,6.1685,6.155,6.1675,6.1675,6.1675,6.1675,6.1675,0,6.1049,6.1084,6.1143,6.1212,6.1262,6.1256,6.1309,6.135,6.1413,6.1458,6.1509,6.1583,6.1643,6.1677,6.1736,6.1772,6.1771,6.1787,6.1784,6.179,6.1695,6.1677,6.1786,6.1786,6.1786,6.1786,6.1786,6.1786,6.1116,6.1199,6.1217,6.1318,6.1351,6.1422,6.1452,6.1493,6.1529,6.1614,6.1665,6.1688,6.1728,6.179,6.1844,6.1852,6.1873,6.1891,6.1897,6.1808,6.1796,6.1785,6.1768,6.1895,6.1895,6.1987,6.1988,6.1989]}]]